| time (UTC) | temp F | wind direction | speed knots | gust knots | rain 1hr in | rain 24hr in | rain mn in | humidity % | barometer mb |
| 20260510173043 | 77 | 120 | 0.0 | 0.0 | 0.00 | 0.00 | 0.00 | 52 | 1013.2 |
| 20260510171545 | 77 | 121 | 0.0 | 0.9 | 0.00 | 0.00 | 0.00 | 54 | 1013.3 |
| 20260510170051 | 77 | 121 | 0.0 | 0.0 | 0.00 | 0.00 | 0.00 | 56 | 1013.5 |
| 20260510164555 | 76 | 98 | 0.0 | 0.0 | 0.00 | 0.00 | 0.00 | 60 | 1013.6 |
| 20260510163053 | 76 | 142 | 0.0 | 0.0 | 0.00 | 0.00 | 0.00 | 57 | 1013.5 |
| 20260510161552 | 76 | 107 | 0.0 | 0.0 | 0.00 | 0.00 | 0.00 | 60 | 1013.7 |
| 20260510160054 | 76 | 107 | 0.0 | 0.9 | 0.00 | 0.01 | 0.00 | 63 | 1013.7 |
| 20260510160000 | 76 | 107 | 0.0 | 0.9 | 0.00 | 0.01 | 0.00 | 62 | 1013.8 |
| 20260510154559 | 75 | 107 | 0.0 | 0.9 | 0.00 | 0.01 | 0.00 | 63 | 1013.8 |
| 20260510153058 | 75 | 107 | 0.0 | 0.0 | 0.00 | 0.01 | 0.00 | 60 | 1013.9 |
| 20260510151603 | 74 | 107 | 0.0 | 0.0 | 0.00 | 0.01 | 0.00 | 65 | 1014.0 |
| 20260510150110 | 73 | 119 | 0.0 | 0.0 | 0.00 | 0.01 | 0.00 | 68 | 1014.1 |
| 20260510150008 | 73 | 119 | 0.0 | 0.0 | 0.00 | 0.01 | 0.00 | 69 | 1014.1 |
| 20260510144515 | 72 | 119 | 0.0 | 0.0 | 0.00 | 0.01 | 0.00 | 74 | 1014.2 |
| 20260510143008 | 72 | 119 | 0.0 | 0.0 | 0.00 | 0.01 | 0.00 | 74 | 1014.0 |
| 20260510141512 | 70 | 119 | 0.0 | 0.0 | 0.00 | 0.01 | 0.00 | 78 | 1013.9 |
| 20260510140054 | 69 | 119 | 0.0 | 0.0 | 0.00 | 0.01 | 0.00 | 81 | 1013.9 |
| 20260510134554 | 67 | 119 | 0.0 | 0.0 | 0.00 | 0.01 | 0.00 | 85 | 1013.8 |
| 20260510133054 | 66 | 119 | 0.0 | 0.0 | 0.00 | 0.01 | 0.00 | 87 | 1013.7 |
| 20260510131555 | 65 | 119 | 0.0 | 0.0 | 0.00 | 0.01 | 0.00 | 90 | 1013.7 |
| 20260510124603 | 62 | 119 | 0.0 | 0.0 | 0.00 | 0.01 | 0.00 | 95 | 1013.6 |
| 20260510124504 | 62 | 119 | 0.0 | 0.0 | 0.00 | 0.01 | 0.00 | 95 | 1013.6 |
| 20260510123008 | 62 | 119 | 0.0 | 0.0 | 0.00 | 0.01 | 0.00 | 96 | 1013.6 |
| 20260510121509 | 61 | 119 | 0.0 | 0.0 | 0.00 | 0.01 | 0.00 | 96 | 1013.5 |
| 20260510120009 | 61 | 119 | 0.0 | 0.0 | 0.00 | 0.01 | 0.00 | 97 | 1013.1 |
| 20260510114510 | 61 | 119 | 0.0 | 0.0 | 0.00 | 0.01 | 0.00 | 97 | 1012.9 |
| 20260510113019 | 61 | 119 | 0.0 | 0.0 | 0.00 | 0.01 | 0.00 | 97 | 1012.7 |
| 20260510111521 | 61 | 119 | 0.0 | 0.0 | 0.00 | 0.01 | 0.00 | 97 | 1012.5 |
| 20260510110020 | 60 | 119 | 0.0 | 0.0 | 0.00 | 0.01 | 0.00 | 97 | 1012.3 |
| 20260510104542 | 60 | 119 | 0.0 | 0.0 | 0.00 | 0.01 | 0.00 | 97 | 1012.2 |
| 20260510103043 | 59 | 119 | 0.0 | 0.0 | 0.00 | 0.01 | 0.00 | 96 | 1012.1 |
| 20260510101554 | 58 | 119 | 0.0 | 0.0 | 0.00 | 0.01 | 0.00 | 95 | 1011.9 |
| 20260510100051 | 58 | 119 | 0.0 | 0.0 | 0.00 | 0.01 | 0.00 | 95 | 1011.7 |
| 20260510094552 | 58 | 119 | 0.0 | 0.0 | 0.00 | 0.01 | 0.00 | 94 | 1011.7 |
| 20260510093025 | 58 | 119 | 0.0 | 0.0 | 0.00 | 0.01 | 0.00 | 94 | 1011.4 |
| 20260510091523 | 58 | 119 | 0.0 | 0.0 | 0.00 | 0.01 | 0.00 | 94 | 1011.2 |
| 20260510090021 | 59 | 119 | 0.0 | 0.0 | 0.00 | 0.01 | 0.00 | 94 | 1011.1 |
| 20260510084521 | 59 | 119 | 0.0 | 0.0 | 0.00 | 0.01 | 0.00 | 94 | 1011.0 |
| 20260510083023 | 59 | 119 | 0.0 | 0.0 | 0.00 | 0.01 | 0.00 | 94 | 1010.8 |
| 20260510081545 | 59 | 119 | 0.0 | 0.0 | 0.00 | 0.01 | 0.00 | 94 | 1010.7 |
| 20260510080055 | 60 | 119 | 0.0 | 0.0 | 0.00 | 0.01 | 0.00 | 93 | 1010.7 |
| 20260510074551 | 60 | 119 | 0.0 | 0.0 | 0.00 | 0.01 | 0.00 | 93 | 1010.6 |
| 20260510073106 | 60 | 119 | 0.0 | 0.0 | 0.00 | 0.01 | 0.00 | 93 | 1010.4 |
| 20260510071512 | 60 | 119 | 0.0 | 0.0 | 0.00 | 0.01 | 0.00 | 93 | 1010.3 |
| 20260510070011 | 61 | 119 | 0.0 | 0.0 | 0.00 | 0.01 | 0.00 | 93 | 1010.3 |
| 20260510064532 | 61 | 119 | 0.0 | 0.0 | 0.00 | 0.01 | 0.00 | 93 | 1010.4 |
| 20260510063025 | 61 | 119 | 0.0 | 0.0 | 0.00 | 0.01 | 0.00 | 93 | 1010.4 |
| 20260510061503 | 61 | 119 | 0.0 | 0.0 | 0.00 | 0.01 | 0.00 | 92 | 1010.3 |
| 20260510060010 | 62 | 119 | 0.0 | 0.0 | 0.00 | 0.01 | 0.00 | 92 | 1010.6 |
| 20260510054549 | 62 | 119 | 0.0 | 0.0 | 0.00 | 0.01 | 0.00 | 92 | 1010.6 |
| 20260510053053 | 62 | 119 | 0.0 | 0.0 | 0.00 | 0.01 | 0.00 | 92 | 1010.6 |
| 20260510051558 | 62 | 119 | 0.0 | 0.0 | 0.00 | 0.01 | 0.00 | 91 | 1010.7 |
| 20260510050056 | 63 | 119 | 0.0 | 0.0 | 0.00 | 0.01 | 0.00 | 91 | 1010.9 |
| 20260510044557 | 63 | 119 | 0.0 | 0.0 | 0.00 | 0.01 | 0.00 | 90 | 1010.9 |
| 20260510044501 | 63 | 119 | 0.0 | 0.0 | 0.00 | 0.01 | 0.00 | 90 | 1011.0 |
| 20260510043059 | 63 | 119 | 0.0 | 0.0 | 0.00 | 0.01 | 0.00 | 91 | 1011.0 |
| 20260510043001 | 63 | 119 | 0.0 | 0.0 | 0.00 | 0.01 | 0.00 | 91 | 1011.0 |
| 20260510041504 | 63 | 119 | 0.0 | 0.0 | 0.00 | 0.01 | 0.00 | 90 | 1011.0 |
| 20260510040028 | 63 | 119 | 0.0 | 0.0 | 0.00 | 0.01 | 0.01 | 90 | 1011.3 |
| 20260510034525 | 63 | 119 | 0.0 | 0.0 | 0.00 | 0.01 | 0.01 | 90 | 1011.4 |
| 20260510033029 | 63 | 119 | 0.0 | 0.0 | 0.00 | 0.01 | 0.01 | 90 | 1011.3 |
| 20260510031534 | 63 | 119 | 0.0 | 0.0 | 0.00 | 0.01 | 0.01 | 89 | 1011.2 |
| 20260510030039 | 64 | 119 | 0.0 | 0.0 | 0.00 | 0.01 | 0.01 | 89 | 1011.1 |
| 20260510024506 | 64 | 119 | 0.0 | 0.0 | 0.00 | 0.01 | 0.01 | 88 | 1010.8 |
| 20260510023005 | 64 | 119 | 0.0 | 0.0 | 0.00 | 0.01 | 0.01 | 88 | 1010.7 |
| 20260510021511 | 64 | 119 | 0.0 | 0.0 | 0.00 | 0.01 | 0.01 | 87 | 1010.3 |
| 20260510020024 | 65 | 119 | 0.0 | 0.0 | 0.00 | 0.01 | 0.01 | 86 | 1010.2 |
| 20260510014521 | 65 | 119 | 0.0 | 0.0 | 0.00 | 0.01 | 0.01 | 86 | 1010.1 |
| 20260510013019 | 65 | 119 | 0.0 | 0.0 | 0.00 | 0.01 | 0.01 | 85 | 1010.0 |
| 20260510011522 | 65 | 119 | 0.0 | 0.0 | 0.00 | 0.01 | 0.01 | 84 | 1010.0 |
| 20260510010023 | 66 | 119 | 0.0 | 0.0 | 0.00 | 0.01 | 0.01 | 84 | 1009.6 |
| 20260510004544 | 66 | 119 | 0.0 | 0.0 | 0.00 | 0.01 | 0.01 | 84 | 1009.7 |
| 20260510003103 | 67 | 119 | 0.0 | 0.0 | 0.00 | 0.01 | 0.01 | 82 | 1009.4 |
| 20260510001552 | 67 | 119 | 0.0 | 0.0 | 0.00 | 0.01 | 0.01 | 82 | 1009.3 |
| 20260510000114 | 68 | 119 | 0.0 | 0.0 | 0.00 | 0.01 | 0.01 | 81 | 1009.3 |
| 20260509234559 | 68 | 119 | 0.0 | 0.0 | 0.00 | 0.01 | 0.01 | 80 | 1009.1 |
| 20260509234503 | 68 | 119 | 0.0 | 0.0 | 0.00 | 0.01 | 0.01 | 80 | 1009.1 |
| 20260509233047 | 69 | 119 | 0.0 | 0.0 | 0.00 | 0.01 | 0.01 | 79 | 1008.9 |
| 20260509231550 | 69 | 119 | 0.0 | 0.0 | 0.00 | 0.01 | 0.01 | 78 | 1008.6 |
| 20260509230050 | 69 | 119 | 0.0 | 0.0 | 0.00 | 0.01 | 0.01 | 77 | 1008.5 |
| 20260509224537 | 70 | 119 | 0.0 | 0.0 | 0.00 | 0.01 | 0.01 | 77 | 1008.5 |
| 20260509223038 | 70 | 119 | 0.0 | 0.0 | 0.00 | 0.01 | 0.01 | 76 | 1008.5 |
| 20260509221539 | 70 | 120 | 0.0 | 0.0 | 0.00 | 0.01 | 0.01 | 76 | 1008.4 |
| 20260509220038 | 71 | 126 | 0.0 | 0.0 | 0.00 | 0.01 | 0.01 | 75 | 1008.3 |
| 20260509214532 | 71 | 126 | 0.0 | 0.0 | 0.00 | 0.01 | 0.01 | 74 | 1008.3 |
| 20260509213033 | 71 | 126 | 0.0 | 0.0 | 0.00 | 0.01 | 0.01 | 74 | 1008.2 |
| 20260509211535 | 71 | 126 | 0.0 | 0.0 | 0.00 | 0.01 | 0.01 | 72 | 1007.7 |
| 20260509210046 | 71 | 126 | 0.0 | 0.0 | 0.00 | 0.01 | 0.01 | 72 | 1007.9 |
| 20260509204606 | 71 | 137 | 0.0 | 0.0 | 0.00 | 0.01 | 0.01 | 71 | 1008.0 |
| 20260509203005 | 72 | 137 | 0.0 | 0.0 | 0.00 | 0.01 | 0.01 | 70 | 1007.9 |
| 20260509201504 | 72 | 137 | 0.0 | 0.0 | 0.00 | 0.01 | 0.01 | 69 | 1008.1 |
| 20260509200004 | 71 | 150 | 0.0 | 0.0 | 0.00 | 0.01 | 0.01 | 73 | 1008.2 |
| 20260509194507 | 71 | 151 | 0.0 | 0.0 | 0.00 | 0.01 | 0.01 | 73 | 1008.2 |
| 20260509193006 | 70 | 151 | 0.0 | 0.0 | 0.00 | 0.01 | 0.01 | 74 | 1008.3 |
| 20260509191507 | 69 | 151 | 0.0 | 0.0 | 0.00 | 0.01 | 0.01 | 76 | 1008.4 |
| 20260509190006 | 69 | 151 | 0.0 | 0.0 | 0.00 | 0.01 | 0.01 | 76 | 1008.6 |
| 20260509184509 | 69 | 151 | 0.0 | 0.0 | 0.00 | 0.01 | 0.01 | 76 | 1008.5 |
| 20260509183007 | 69 | 151 | 0.0 | 0.0 | 0.00 | 0.01 | 0.01 | 76 | 1008.7 |
| 20260509181510 | 68 | 151 | 0.0 | 0.0 | 0.00 | 0.01 | 0.01 | 78 | 1008.9 |
| 20260509180017 | 67 | 151 | 0.0 | 0.0 | 0.00 | 0.01 | 0.01 | 80 | 1008.9 |
| 20260509174559 | 66 | 149 | 0.0 | 0.0 | 0.00 | 0.01 | 0.01 | 84 | 1008.8 |